Tracking 29594 objects as of 20-Sep-2024
HD Live streaming from Space Station
objects crossing your sky now

STARLINK-4344

Track STARLINK-4344 now!
10-day predictions
STARLINK-4344 is classified as:


NORAD ID: 53072
Int'l Code: 2022-077AF
Perigee: 568.4 km
Apogee: 571.9 km
Inclination: 97.7 °
Period: 95.9 minutes
Semi major axis: 6941 km
RCS: Unknown
Launch date: July 11, 2022
Source: United States (US)
Launch site: AIR FORCE WESTERN TEST RANGE (AFWTR)
Your satellite tracking list
Your tracking list is empty




NASA's NSSDC Master Catalog

Two Line Element Set (TLE):
1 53072U 22077AF  24263.97807273  .00000080  00000-0  10837-4 0  9996
2 53072  97.6571  83.4811 0002491  72.3301 287.8195 15.01261941121128
Source of the keplerian elements: AFSPC